Location: Waco, TX
(31.5480°N, 97.1670°W)
Time: 12:07:21
(UTC-05:00)

ISS - Pass Details

Date: 17 October 2018
Orbit: 403 x 408 km, 51.6° (Epoch: 23 October)

Event Time Altitude Azimuth Distance (km) Brightness Sun altitude
Rises 17:14:59 0° 328° (NNW) 2,332 0.1 19.3°
Reaches altitude 10° 17:17:24 10° 344° (NNW) 1,469 -1.0 18.8°
Maximum altitude 17:20:01 21° 37° (NE) 961 -2.3 18.3°
Drops below altitude 10° 17:22:38 10° 90° (E) 1,464 -1.5 17.8°
Sets 17:25:01 0° 107° (ESE) 2,321 -0.4 17.4°
